Greenville, MS

9:55 AM CST on February 20, 2018 (GMT -0600)
Mid Delta Regional

Weather History for KGLH - November, 2010

Change the Weather History Date:

Friday, November 26, 2010

  Actual Average Record
Temperature  
Mean Temperature 38 °F 50 °F  
Max Temperature 44 °F 60 °F 81 °F (1921)
Min Temperature 31 °F 40 °F 20 °F (1950)
Degree Days  
Heating Degree Days 27 15  
Month to date heating degree days 267 285  
Since 1 July heating degree days 342 399  
Cooling Degree Days 0 0  
Month to date cooling degree days 13 9  
Year to date cooling degree days 2673 2183  
Moisture  
Dew Point 30 °F    
Average Humidity 75    
Maximum Humidity 100    
Minimum Humidity 49    
Precipitation  
Precipitation 0.02 in 0.21 in 2.61 in (1919)
Month to date precipitation 3.75 4.15  
Year to date precipitation 27.35 46.11  
Sea Level Pressure  
Sea Level Pressure 30.18 in    
Wind  
Wind Speed 10 mph (North)    
Max Wind Speed 24 mph    
Max Gust Speed 30 mph    
Visibility 10 miles    
Events Rain    
T = Trace of Precipitation, MM = Missing Value Source: NWS Daily Summary

Daily Weather History Graph

Daily Weather History Graph

Search for Another Location

Airport or City:

Trip Planner

Search our weather history database for the weather conditions in past years. The results will help you decide how hot, cold, wet, or windy it might be!

Date:

Astronomy

Nov. 26, 2010 Rise Set
Actual Time 6:45 AM CST 4:56 PM CST
Civil Twilight 6:18 AM CST 5:23 PM CST
Nautical Twilight 5:48 AM CST 5:54 PM CST
Astronomical Twilight 5:18 AM CST 6:24 PM CST
Moon 10:00 PM CST (11/26) 10:56 AM CST (11/26)
Length of Visible Light 11h 05m
Length of Day
10h 11m
Waning Gibbous, 73% of the Moon is Illuminated
Nov 26
Waning Gibbous
Nov 28
Last Quarter
Dec 5
New
Dec 13
First Quarter
Dec 21
Full

Hourly Weather History & Observations

Time (CST) Temp. Windchill Dew Point Humidity Pressure Visibility Wind Dir Wind Speed Gust Speed Precip Events Conditions
12:51 AM 41.0 °F 32.2 °F 39.2 °F 93% 30.09 in 10.0 mi North 18.4 mph 26.5 mph 0.01 in Rain Light Rain
12:53 AM 41.0 °F 32.2 °F 39.0 °F 93% 30.10 in 10.0 mi North 18.4 mph 26.5 mph 0.01 in Rain Light Rain
1:08 AM 39.2 °F 29.8 °F 39.2 °F 100% 30.07 in 10.0 mi North 18.4 mph - 0.01 in Rain Light Rain
1:53 AM 39.0 °F 29.6 °F 36.0 °F 89% 30.10 in 10.0 mi North 18.4 mph 26.5 mph 0.02 in Rain Light Rain
2:01 AM 39.2 °F 30.2 °F 37.4 °F 93% 30.09 in 10.0 mi North 17.3 mph - 0.00 in   Overcast
2:36 AM 39.2 °F 30.2 °F 35.6 °F 87% 30.08 in 10.0 mi North 17.3 mph - 0.00 in   Overcast
2:53 AM 39.0 °F 29.3 °F 36.0 °F 89% 30.11 in 10.0 mi North 19.6 mph 26.5 mph 0.00 in   Overcast
3:53 AM 37.0 °F 27.4 °F 34.0 °F 89% 30.12 in 10.0 mi North 17.3 mph - N/A   Mostly Cloudy
4:03 AM 37.4 °F 27.8 °F 32.0 °F 81% 30.12 in 10.0 mi North 17.3 mph - N/A   Scattered Clouds
4:24 AM 37.4 °F 27.8 °F 30.2 °F 75% 30.12 in 10.0 mi North 17.3 mph - N/A   Mostly Cloudy
4:53 AM 36.0 °F 26.0 °F 28.9 °F 76% 30.14 in 10.0 mi North 17.3 mph - N/A   Scattered Clouds
5:34 AM 35.6 °F 26.2 °F 28.4 °F 75% 30.13 in 10.0 mi North 15.0 mph - N/A   Overcast
5:42 AM 35.6 °F 26.6 °F 28.4 °F 75% 30.15 in 10.0 mi North 13.8 mph - N/A   Mostly Cloudy
5:53 AM 35.1 °F 25.5 °F 27.0 °F 72% 30.17 in 10.0 mi North 15.0 mph - N/A   Scattered Clouds
6:53 AM 34.0 °F 25.5 °F 25.0 °F 70% 30.20 in 10.0 mi North 11.5 mph - N/A   Clear
7:53 AM 36.0 °F 26.7 °F 25.0 °F 64% 30.20 in 10.0 mi North 15.0 mph - N/A   Clear
8:53 AM 36.0 °F 26.0 °F 24.1 °F 62% 30.23 in 10.0 mi NNE 17.3 mph - N/A   Clear
9:53 AM 37.4 °F 30.3 °F 24.8 °F 60% 30.23 in 10.0 mi NNE 10.4 mph - N/A   Mostly Cloudy
10:53 AM 36.0 °F 27.5 °F 21.9 °F 57% 30.25 in 10.0 mi North 12.7 mph - N/A   Mostly Cloudy
11:53 AM 37.0 °F 29.8 °F 23.0 °F 57% 30.24 in 10.0 mi North 10.4 mph - N/A   Clear
12:53 PM 39.9 °F 33.9 °F 24.1 °F 53% 30.23 in 10.0 mi North 9.2 mph - N/A   Clear
1:53 PM 42.1 °F 35.2 °F 26.1 °F 53% 30.21 in 10.0 mi North 12.7 mph - N/A   Clear
2:53 PM 44.1 °F 40.1 °F 26.1 °F 49% 30.22 in 10.0 mi North 6.9 mph - N/A   Clear
3:53 PM 43.0 °F 38.8 °F 25.0 °F 49% 30.22 in 10.0 mi NNW 6.9 mph - N/A   Clear
4:53 PM 41.0 °F 39.0 °F 27.0 °F 57% 30.23 in 10.0 mi WNW 3.5 mph - N/A   Clear
5:53 PM 37.9 °F 34.4 °F 28.9 °F 70% 30.22 in 10.0 mi West 4.6 mph - N/A   Clear
6:53 PM 37.0 °F 34.5 °F 28.9 °F 73% 30.23 in 10.0 mi WNW 3.5 mph - N/A   Clear
7:53 PM 35.1 °F 32.2 °F 28.9 °F 78% 30.23 in 10.0 mi West 3.5 mph - N/A   Clear
8:53 PM 33.1 °F - 28.0 °F 82% 30.24 in 10.0 mi Calm Calm - N/A   Clear
9:53 PM 30.9 °F 27.5 °F 30.0 °F 96% 30.25 in 10.0 mi SSW 3.5 mph - N/A   Clear
10:53 PM 32.0 °F - 30.0 °F 92% 30.26 in 10.0 mi Calm Calm - N/A   Clear
11:53 PM 32.0 °F 28.7 °F 30.0 °F 92% 30.26 in 10.0 mi WSW 3.5 mph - N/A   Clear